Weather in Novaya Kulatka

Russia / Ulyanovsk Oblast     52°39′08″N   47°39′22″E
temp.,
°C
wind,
m/s
gust,
m/s
humid.,
%
clouds,
%
prec.,
mm/h
press.,
hPa
HPBL,
m
13 may, thu
thu1301:00+15ene2585100 0.0 1022116
04:00+14e4117492 0.0 1021248
07:00+14e51279100 0.4 1021357
10:00+14e51284100 0.8 1021314
13:00+22se81258100 0.0 10201154
16:00+24se7135335 0.0 10191787
19:00+22se7145860 0.0 1019488
22:00+16se412734 0.1 1019216
14 may, fri
fri1401:00+15se22757 0.1 102012
04:00+14ese117998 0.1 102111
07:00+17ese237535 0.0 102196
10:00+22se5850100 0.0 1021489
13:00+25s71138100 0.0 10211102
16:00+26s6104256 0.0 10201328
19:00+23sse38550 0.0 1020189
22:00+18se310595 0.0 1020152
15 may, sat
sat1501:00+16se2258100 0.0 102021
04:00+16se225660 0.0 102011
07:00+18se23565 0.0 102185
10:00+23s58395 0.0 1020470
13:00+27s69315 0.0 10201086
16:00+28s69335 0.0 10191931
19:00+24sse48490 0.0 1018151
22:00+19se33530 0.0 101820
16 may, sun
sun1601:00+18sse226021 0.0 101817
04:00+16se22605 0.0 101811
07:00+18se226045 0.0 101889
10:00+24s474261 0.0 1018524
13:00+27ssw68345 0.0 10181404
16:00+28ssw593247 0.0 10172427
19:00+26ssw11481 0.0 101611
22:00+21se11515 0.0 101611
17 may, mon
mon1701:00+20ese22485 0.0 101611
04:00+18ese225413 0.0 101612
07:00+20ese116095 0.0 101764
10:00+26sse344283 0.0 1017381
13:00+29sse452815 0.0 10161392
16:00+29sse362640 0.0 10163210
19:00+26ese33455 0.0 101650
22:00+21ese22475 0.0 101612